Regional Weather Roundup
Issued by NWS

Home | Current Version | Previous Version | Graphics & Text | Print | Product List | Glossary On
Versions: 1 2 3 4 5 6 7 8 9 10 11 12 13 14 15 16 17 18 19 20 21 22 23 24 25 26 27 28 29 30 31 32 33 34 35 36 37 38 39 40 41 42 43 44 45 46 47 48 49 50
000
ASUS43 KDMX 160406
RWRIA

WEATHER ROUNDUP FOR IOWA
NATIONAL WEATHER SERVICE DES MOINES IA
1000 PM CST SUN JAN 15 2017

NOTE: "FAIR" INDICATES FEW OR NO CLOUDS BELOW 12,000 FEET WITH NO
SIGNIFICANT WEATHER AND/OR OBSTRUCTIONS TO VISIBILITY.

* - THESE STATIONS ARE NOT NWS STATIONS...THUS NOT UNDER NWS
QUALITY CONTROL.  THEY ALSO DO NOT REPORT WEATHER SUCH
AS PRECIPITATION OR FOG.

IAZ001>003-012>014-020>022-031>034-043>046-160500-
   NORTHWEST IOWA

CITY           SKY/WX    TMP DP  RH WIND       PRES   REMARKS
CARROLL *      CLOUDY    32  32 100 SE9       30.16F FOG     WCI  24
CHEROKEE *     CLOUDY    29  25  84 CALM      30.16F
DENISON *      MIX PCPN  32  32 100 SE5       30.14S WCI  27
LE MARS *      CLOUDY    30  19  64 VRB5      30.17S WCI  25
ORANGE CITY *  CLOUDY    25  19  80 SE5       30.15S WCI  19
SHELDON *      CLOUDY    23  21  93 SE5       30.14S WCI  17
SIOUX CITY     CLOUDY    32  26  78 S6        30.16F WCI  26
SPENCER        PTCLDY    21  18  88 E5        30.17F WCI  15
STORM LAKE *   CLOUDY    28  25  86 SE7       30.16S WCI  21
$$

IAZ055>058-069>071-079>083-090>094-160500-
   SOUTHWEST IOWA

CITY           SKY/WX    TMP DP  RH WIND       PRES   REMARKS
ATLANTIC *     CLOUDY    32  32 100 SE5       30.16S WCI  27
AUDUBON *      MIX PCPN  32  28  86 E6        30.16F WCI  26
CLARINDA *     CLOUDY    32  32 100 SE3       30.18R FOG
COUNCIL BLFS * CLOUDY    32  32 100 SE7       30.15R FOG     WCI  26
CRESTON *      CLOUDY    30  32 100 E9        30.16F FOG     WCI  22
HARLAN  *      CLOUDY    32  32 100 SE6       30.19S WCI  26
LAMONI         CLOUDY    31  29  92 E5        30.17F FOG     WCI  26
RED OAK *      CLOUDY    32  32 100 MISG      30.17R
SHENANDOAH *   CLOUDY    32  32 100 SE5       30.17S WCI  27
$$

IAZ047>049-059>061-072>074-084-160500-
   CENTRAL IOWA

CITY           SKY/WX    TMP DP  RH WIND       PRES   REMARKS
AMES           FRZ RAIN  30  27  88 SE8       30.21F FOG     WCI  22
ANKENY *       MIX PCPN  30  28  93 SE10      30.22F WCI  21
BOONE *        MIX PCPN  30  28  93 SE13      30.18F WCI  20
CHARITON *     CLOUDY    30  28  93 E8        30.19S FOG     WCI  23
DES MOINES     FRZ RAIN  31  28  89 E8        30.21S FOG     WCI  23
GRINNELL*      MIX PCPN  29  23  78 E9        30.22F WCI  21
KNOXVILLE *    CLOUDY    30  27  86 E6        30.20S WCI  24
MARSHALLTOWN   CLOUDY    30  21  69 E6        30.22S WCI  24
NEWTON *       CLOUDY    28  25  86 SE10      30.22S FOG     WCI  19
PELLA *        MIX PCPN  30  26  88 E6        30.23F WCI  24
PERRY *        DRIZZLE   31  30  97 E8        30.19F WCI  23
$$

IAZ004>006-015-016-023>025-035-036-160500-
   NORTH CENTRAL IOWA

CITY           SKY/WX    TMP DP  RH WIND       PRES   REMARKS
ALGONA *       CLOUDY    25  21  86 E6        30.19S WCI  18
CLARION *      CLOUDY    27  25  93 E8        30.20S WCI  18
ESTHERVILLE    PTCLDY    22  20  92 S8        30.17F WCI  12
FORT DODGE *   CLOUDY    28  21  74 E5        30.20S WCI  23
MASON CITY     CLOUDY    19  15  84 SE5       30.22F WCI  12
FOREST CITY *    N/A     23  19  86 E6        30.20F WCI  16
WEBSTER CITY * CLOUDY    30  27  86 SE9       30.18S WCI  22
IOWA FALLS *   CLOUDY    30  22  74 E5        30.22F WCI  25
$$

IAZ007>011-017>019-026>030-037>042-050>054-066-160500-
   NORTHEAST IOWA

CITY           SKY/WX    TMP DP  RH WIND       PRES   REMARKS
CEDAR RAPIDS   CLOUDY    30  17  58 E6        30.25S WCI  24
CHARLES CITY * CLOUDY    21  19  93 E7        30.24F WCI  13
CLINTON *      CLOUDY    30  24  78 E7        30.29S WCI  23
DECORAH *      CLOUDY    21  18  86 SE5       30.24F WCI  15
DUBUQUE        CLOUDY    27  17  66 SE3       30.27S
MONTICELLO *   CLOUDY    28  18  64 E5        30.26F WCI  23
OELWEIN *      CLOUDY    27  23  86 E6        30.25S WCI  20
WATERLOO       PTCLDY    27  21  78 E6        30.25S WCI  20
$$

IAZ064-065-067-068-078-160500-
   EAST CENTRAL IOWA

CITY           SKY/WX    TMP DP  RH WIND       PRES   REMARKS
DAVENPORT      CLOUDY    31  23  72 E5        30.28S WCI  26
IOWA CITY      CLOUDY    33  20  58 E5        30.28S WCI  29
MUSCATINE *    CLOUDY    32  27  80 SE5       30.28F WCI  27
QUAD CITIES    CLOUDY    33  25  72 E6        30.27S WCI  28
$$

IAZ062-063-075>077-085>089-095>099-160500-
   SOUTHEAST IOWA

CITY           SKY/WX    TMP DP  RH WIND       PRES   REMARKS
BURLINGTON     CLOUDY    32  29  88 E7        30.25F FOG     WCI  26
FAIRFIELD *    CLOUDY    30  27  86 E9        30.23F WCI  22
FORT MADISON * CLOUDY    32  27  80 E6        30.25F HAZE    WCI  26
KEOKUK *       CLOUDY    32  30  93 E7        30.24S FOG     WCI  26
OSKALOOSA *    MIX PCPN  29  27  92 E8        30.23S WCI  21
CENTERVILLE *  CLOUDY    28  28 100 CALM      30.20F
OTTUMWA        CLOUDY    30  27  88 E10       30.21F FOG     WCI  21
WASHINGTON *   CLOUDY    32  28  86 E9        30.26F WCI  24
$$

ABBREVIATIONS USED IN REMARKS
   TC - TEMPERATURES IN CELSIUS
  WCI - WIND CHILL INDEX
   HX - HEAT INDEX
  VSB - VISIBILITY
$$





USA.gov is the U.S. government's official web portal to all federal, state and local government web resources and services.